Regional Weather Roundup
Issued by NWS

Home | Current Version | Previous Version | Text Only | Print | Product List | Glossary On
Versions: 1 2 3 4 5 6 7 8 9 10 11 12 13 14 15 16 17 18 19 20 21 22 23 24 25 26 27 28 29 30 31 32 33 34 35 36 37 38 39 40 41 42 43 44 45 46 47 48 49 50
508
ASUS44 KJAN 101010
RWRMS

MISSISSIPPI HOURLY WEATHER ROUNDUP
NATIONAL WEATHER SERVICE JACKSON MS
400 AM CST WED FEB 10 2016

NOTE: "FAIR: INDICATES FEW OR NO CLOUDS BELOW 12,000 FEET WITH NO
SIGNIFICANT WEATHER AND/OR OBSTRUCTIONS TO VISIBILITY.

MSZ001>002-007>008-010>013-018>021-025>028-034>036-101100-
NORTHWEST MISSISSIPPI

CITY           SKY/WX    TMP DP  RH WIND       PRES   REMARKS
CLEVELAND      FAIR      28  20  71 NW3       30.26R
GREENWOOD      CLEAR     23  19  85 CALM      30.26R
GREENVILLE     CLEAR     29  18  63 NW6       30.27R WCI  23
OLIVE BRANCH   CLEAR     21  14  73 N7        30.20S WCI  13
OXFORD         FAIR      23  12  63 W3        30.23R
TUNICA         SUNNY     27  10  50 NW6       30.25S WCI  20
$$

MSZ003>006-009-014>017-022>024-029>033-037>039-101100-
NORTHEAST MISSISSIPPI

CITY           SKY/WX    TMP DP  RH WIND       PRES   REMARKS
COLUMBUS AFB   CLEAR     23  15  73 NW2       30.21R
GOLDN TRIANGLE PTCLDY    25  12  58 NW7       30.20R WCI  17
STARKVILLE     FAIR      27  16  63 NW3       30.22S
TUPELO         CLEAR     24  14  65 SW3       30.21R
$$

MSZ040-058-101100-
CENTRAL MISSISSIPPI

CITY           SKY/WX    TMP DP  RH WIND       PRES   REMARKS
JACKSON INTL   CLEAR     25  18  74 CALM      30.25R
JACKSON HAWKNS CLEAR     27  19  72 CALM      30.26R
MERIDIAN KEY   PTCLDY    25  18  74 CALM      30.24R
MERIDIAN NAS   PTCLDY    26  15  63 W6        30.23R WCI  19
VICKSBURG      CLEAR     29  22  75 CALM      30.28R
$$

MSZ059>079-101100-
SOUTH MISSISSIPPI

CITY           SKY/WX    TMP DP  RH WIND       PRES   REMARKS
BROOKHAVEN     FAIR      30  23  74 MISG      30.27R
HATTIESBURG    CLEAR     28  22  78 CALM      30.27R
MCCOMB         CLEAR     31  22  69 N3        30.26R
NATCHEZ        CLEAR     32  18  55 CALM      30.27R
PINE BELT      CLEAR     27  18  69 CALM      30.25R
$$

MSZ080>082-101100-
COASTAL MISSISSIPPI

CITY           SKY/WX    TMP DP  RH WIND       PRES   REMARKS
BILOXI         PTCLDY    37  22  54 N6        30.25R WCI  32
PASCAGOULA     CLEAR     33  21  61 N6        30.25R WCI  28
GULFPORT       CLEAR     34  22  61 N5        30.25R WCI  30
$$




USA.gov is the U.S. government's official web portal to all federal, state and local government web resources and services.